Regional Weather Roundup
Issued by NWS

Home | Current Version | Previous Version | Graphics & Text | Print | Product List | Glossary On
Versions: 1 2 3 4 5 6 7 8 9 10 11 12 13 14 15 16 17 18 19 20 21 22 23 24 25 26 27 28 29 30 31 32 33 34 35 36 37 38 39 40 41 42 43 44 45 46 47 48 49 50
369
ASUS43 KBIS 251102
RWRND

NORTH DAKOTA REGIONAL WEATHER ROUNDUP
NATIONAL WEATHER SERVICE BISMARCK ND
600 AM CDT SUN SEP 25 2016

NOTE: "FAIR" INDICATES FEW OR NO CLOUDS BELOW 12,000 FEET WITH NO
SIGNIFICANT WEATHER AND/OR OBSTRUCTIONS TO VISIBILITY.


NDZ001>003-009>011-017-251200-
NORTHWEST NORTH DAKOTA

CITY           SKY/WX    TMP DP  RH WIND       PRES   REMARKS
WILLISTON      CLOUDY    47  40  76 NW20G29   30.07R
MINOT          LGT RAIN  51  49  92 W23G35    29.88R
MINOT AFB      LGT RAIN  51  48  92 NW22G31   29.86R
$$

NDZ018>021-031>035-040>046-251200-
SOUTHWEST NORTH DAKOTA

CITY           SKY/WX    TMP DP  RH WIND       PRES   REMARKS
BISMARCK       LGT RAIN  51  50  96 NW22G37   29.90R FOG
DICKINSON      PTCLDY    46  42  86 NW21G30   30.04R
GARRISON         N/A     50  49  96 NW28G39   29.91R
HETTINGER ARPT CLOUDY    48  43  82 NW21G29   30.09R
$$

NDZ004>008-012>016-024-026-027-054-251200-
NORTHEAST NORTH DAKOTA

CITY           SKY/WX    TMP DP  RH WIND       PRES   REMARKS
GRAND FORKS    CLEAR     55  51  86 S10       29.70S
GRND FRKS AFB  CLEAR     54  50  87 S9        29.70F
DEVILS LAKE    CLOUDY    56  55  97 NW18      29.69S
$$

NDZ022-023-025-028>030-036>039-047>053-251200-
SOUTHEAST NORTH DAKOTA

CITY           SKY/WX    TMP DP  RH WIND       PRES   REMARKS
FARGO          CLEAR     55  48  77 S9        29.77S
JAMESTOWN      MOCLDY    49  46  90 SW6       29.75S
$$





USA.gov is the U.S. government's official web portal to all federal, state and local government web resources and services.